Location: Albany
(35.0000°S, 118.0000°E)
Time: 01:16:14
(UTC-04:00)

ERS-1 Rocket - Visible Passes

Search period start: 25 May 2015 00:00
Search period end: 04 June 2015 00:00
Orbit: 753 x 759 km, 98.7° (Epoch: 24 May)

Date Brightness Start Highest point End Pass type
(mag) Time Alt. Az. Time Alt. Az. Time Alt. Az.
26 May 5.7 18:14:46 10° E 18:17:04 14° ESE 18:19:40 10° SE visible
28 May 5.4 18:33:24 10° ENE 18:37:04 21° ESE 18:40:55 10° SSE visible
31 May 5.7 18:15:47 10° E 18:18:08 14° ESE 18:20:46 10° SE visible
02 Jun 5.4 18:34:26 10° ENE 18:38:08 21° ESE 18:41:59 10° SSE visible
